Concord, NH

10:53 PM EST on January 18, 2017 (GMT -0500)
Concord Municipal

Weather History for KCON - January, 2011

Change the Weather History Date:

Sunday, January 16, 2011

  Actual Average Record
Temperature  
Mean Temperature 21 °F 20 °F  
Max Temperature 30 °F 30 °F 63 °F (1995)
Min Temperature 11 °F 10 °F -24 °F (2009)
Degree Days  
Heating Degree Days 44 45  
Month to date heating degree days 678 710  
Since 1 July heating degree days 3321 3456  
Cooling Degree Days 0 0  
Month to date cooling degree days 0 0  
Year to date cooling degree days 0 0  
Moisture  
Dew Point 11 °F    
Average Humidity 66    
Maximum Humidity 92    
Minimum Humidity 39    
Precipitation  
Precipitation 0.00 in 0.09 in 0.82 in (1945)
Month to date precipitation 1.35 1.39  
Year to date precipitation 1.35 1.39  
Snow  
Snow 0.00 in 0.60 in 9.00 in (1945)
Month to date snowfall 19.0 9.3  
Since 1 July snowfall 27.1 26.4  
Snow Depth 15.00 in    
Sea Level Pressure  
Sea Level Pressure 29.96 in    
Wind  
Wind Speed 8 mph (WNW)    
Max Wind Speed 20 mph    
Max Gust Speed 26 mph    
Visibility 10 miles    
Events      
T = Trace of Precipitation, MM = Missing Value Source: NWS Daily Summary

Daily Weather History Graph

Daily Weather History Graph

Search for Another Location

Airport or City:

Trip Planner

Search our weather history database for the weather conditions in past years. The results will help you decide how hot, cold, wet, or windy it might be!

Date:

Astronomy

Jan. 16, 2011 Rise Set
Actual Time 7:14 AM EST 4:37 PM EST
Civil Twilight 6:43 AM EST 5:08 PM EST
Nautical Twilight 6:08 AM EST 5:43 PM EST
Astronomical Twilight 5:34 AM EST 6:17 PM EST
Moon 1:21 PM EST (1/16) 4:18 AM EST (1/16)
Length of Visible Light 10h 25m
Length of Day
9h 22m
Waxing Gibbous, 88% of the Moon is Illuminated
Jan 16
Waxing Gibbous
Jan 19
Full
Jan 26
Last Quarter
Feb 2
New
Feb 11
First Quarter

Hourly Weather History & Observations

Time (EST) Temp. Windchill Dew Point Humidity Pressure Visibility Wind Dir Wind Speed Gust Speed Precip Events Conditions
12:51 AM 23.0 °F 18.4 °F 19.0 °F 85% 29.79 in 10.0 mi WSW 3.5 mph - N/A   Mostly Cloudy
1:51 AM 18.0 °F - 16.0 °F 92% 29.80 in 8.0 mi Calm Calm - N/A   Partly Cloudy
2:51 AM 16.0 °F - 14.0 °F 92% 29.81 in 7.0 mi Calm Calm - N/A   Scattered Clouds
3:51 AM 17.1 °F 7.6 °F 14.0 °F 88% 29.81 in 10.0 mi SSW 6.9 mph - N/A   Clear
4:51 AM 21.9 °F 13.4 °F 17.1 °F 82% 29.81 in 10.0 mi SSW 6.9 mph - N/A   Clear
5:51 AM 21.0 °F - 16.0 °F 81% 29.82 in 10.0 mi Calm Calm - N/A   Clear
6:51 AM 15.1 °F 9.4 °F 12.0 °F 88% 29.86 in 8.0 mi Variable 3.5 mph - N/A   Clear
7:51 AM 18.0 °F 9.8 °F 12.9 °F 81% 29.89 in 10.0 mi West 5.8 mph - N/A   Clear
8:51 AM 24.1 °F 16.0 °F 15.1 °F 69% 29.92 in 10.0 mi West 6.9 mph - N/A   Clear
9:51 AM 27.0 °F 14.7 °F 12.9 °F 56% 29.94 in 10.0 mi WNW 16.1 mph 25.3 mph N/A   Clear
10:51 AM 28.0 °F 16.5 °F 12.9 °F 53% 29.94 in 10.0 mi WNW 15.0 mph 23.0 mph N/A   Mostly Cloudy
11:51 AM 28.0 °F 16.1 °F 12.9 °F 53% 29.93 in 10.0 mi WNW 16.1 mph - N/A   Clear
12:51 PM 30.0 °F 20.0 °F 12.0 °F 47% 29.92 in 10.0 mi WNW 12.7 mph 19.6 mph N/A   Partly Cloudy
1:51 PM 28.0 °F 15.7 °F 7.0 °F 41% 29.95 in 10.0 mi WNW 17.3 mph 25.3 mph N/A   Clear
2:51 PM 28.0 °F 17.0 °F 8.1 °F 43% 29.97 in 10.0 mi WNW 13.8 mph - N/A   Overcast
3:51 PM 28.0 °F 18.6 °F 7.0 °F 41% 30.00 in 10.0 mi WNW 10.4 mph - N/A   Mostly Cloudy
4:51 PM 24.1 °F 14.4 °F 7.0 °F 48% 30.01 in 10.0 mi WNW 9.2 mph - N/A   Clear
5:51 PM 24.1 °F 15.2 °F 9.0 °F 53% 30.05 in 10.0 mi WNW 8.1 mph - N/A   Scattered Clouds
6:51 PM 23.0 °F 13.9 °F 9.0 °F 55% 30.07 in 10.0 mi WNW 8.1 mph - N/A   Clear
7:51 PM 21.0 °F - 9.0 °F 60% 30.09 in 10.0 mi Calm Calm - N/A   Overcast
8:51 PM 21.0 °F 12.4 °F 9.0 °F 60% 30.12 in 10.0 mi West 6.9 mph - N/A   Overcast
9:51 PM 18.0 °F 6.9 °F 3.9 °F 54% 30.14 in 10.0 mi WNW 9.2 mph - N/A   Clear
10:51 PM 16.0 °F 5.3 °F 3.0 °F 57% 30.16 in 10.0 mi NW 8.1 mph - N/A   Clear
11:51 PM 14.0 °F 5.1 °F 3.0 °F 62% 30.17 in 10.0 mi NW 5.8 mph - N/A   Clear